User: anonymous
Location: Drayton Valley
(53.2170°N, 114.9830°W)
Time: 17:40:57
(UTC-06:00)
Language:

Cosmos 1302 Rocket - Orbit

View from above orbital plane
View from above orbital plane
View from above satellite
View from above satellite

Ground track
Ground track

The orbit data is extracted from the following two-line orbital elements,

1 12792U 81084B   14211.50418946  .00000190  00000-0  72792-4 0  5704
2 12792 074.0303 172.8484 0014076 348.7136 150.5392 14.37113015723816
Epoch (UTC): 30 July 2014 12:06:01
Eccentricity: 0.0014076
inclination: 74.0303°
perigee height: 758 km
apogee height: 778 km
right ascension of ascending node: 172.8484°
argument of perigee: 348.7136°
revolutions per day: 14.37113015
mean anomaly at epoch: 150.5392°
orbit number at epoch: 72381

The dashed part of the orbit path shows where the satellite is in the earth's shadow,  

DLR